Current weather by "City, St" or "zip code"  
 
Advertise Here

Current Conditions: Deer Park, Deer Park Airport, WA

Fair


34.0 F

Last Updated on Jan 20 2021, 10:53 am PST
Humidity: 73%
Wind Speed: NE 3.5 mph
Barometer 30.14 in
Dewpoint: 26.1 F
Visibility: 10.00 mi
Precip: --
Heat Index: NA
Wind Chill: NA
Current conditions at:

Deer Park, Deer Park Airport, WA (KDEW)

Lat: 47.97417 Lon: 117.42833

Local Radar Image active severe weather and emergency alerts image image weather storm and storm spotter reports image weather observation monitoring service image
Local
Radar
Active
Alerts
Storm Reports Obs
Monitoring

Sign-up For Email & Text Message Weather Alert Notification Services


Advertise Here

Observation History for Deer Park, Deer Park Airport, WA


Time Wind
(mph)
Vis
(mi)
Weather Precip (in) Temperature (F) Relative
Humidity
Wind
Chill
(F)
Heat
Index
(F)
Pressure
Air Dwpt altimeter
(in)
sea level
(mb)
Rmks
10:53 am PST NE 3.5 10.00 Fair -- 34.0 26.1 73% NA NA 30.14 1023.1
9:53 am PST NE 4.6 10.00 Fair -- 32.0 26.1 79% 27 NA 30.15 1023.2
8:53 am PST N 4.6 10.00 Partly Cloudy -- 30.0 25.0 82% 25 NA 30.14 1022.9
7:53 am PST N 3.5 10.00 Overcast -- 28.0 24.1 85% NA NA 30.14 1023.0
6:53 am PST NE 3.5 10.00 Overcast -- 27.0 24.1 89% NA NA 30.14 1023.1
5:53 am PST N 3.5 10.00 Overcast -- 26.0 23.0 88% NA NA 30.14 1023.1
4:53 am PST NE 3.5 8.00 A Few Clouds -- 22.0 19.0 89% NA NA 30.15 1023.6
3:53 am PST NE 3.5 7.00 Fair -- 25.0 21.9 88% NA NA 30.16 1023.8
2:53 am PST N 3.5 8.00 Overcast -- 28.0 25.0 88% NA NA 30.17 1024.0
1:53 am PST N 0.0 8.00 Overcast -- 27.0 24.1 89% NA NA 30.18 1024.5
12:53 am PST N 0.0 10.00 Fair -- 25.0 21.9 88% NA NA 30.19 1024.8
11:53 pm PST NE 3.5 6.00 Fog/Mist -- 24.0 21.0 88% NA NA 30.21 1025.7
10:53 pm PST NE 3.5 2.50 Fog/Mist -- 24.0 21.9 91% NA NA 30.22 1026.0
9:53 pm PST N 0.0 8.00 Overcast -- 30.0 27.0 88% NA NA 30.24 1026.3
8:53 pm PST SW 4.6 10.00 Overcast -- 31.0 28.0 89% 26 NA 30.24 1026.5
7:53 pm PST S 5.8 10.00 Overcast -- 31.0 27.0 85% 25 NA 30.24 1026.6
6:53 pm PST S 4.6 10.00 Overcast -- 30.0 27.0 88% 25 NA 30.26 1027.8
5:53 pm PST NE 3.5 10.00 Overcast -- 31.0 27.0 85% NA NA 30.33 1029.8
4:53 pm PST N 0.0 10.00 Overcast -- 31.0 27.0 85% NA NA 30.34 1030.1
3:53 pm PST N 0.0 10.00 Overcast -- 31.0 27.0 85% NA NA 30.33 1029.9
2:53 pm PST S 3.5 10.00 Overcast -- 31.0 26.1 82% NA NA 30.37 1031.0
1:53 pm PST N 0.0 10.00 Overcast -- 30.0 26.1 85% NA NA 30.40 1032.1
12:53 pm PST 10.00 Overcast -- 30.0 26.1 85% NA NA 30.42 1032.9
11:53 am PST SW 4.6 10.00 Mostly Cloudy -- 30.0 26.1 85% 25 NA 30.45 1033.6

Regional Weather Observation


Spokane, Felts Field, WA (KSFF)

Fair
33.0 F

Fairchild Air Force Base, WA (KSKA)

Fair
30.0 F

Spokane, Spokane International Airport, WA (KGEG)

Mostly Cloudy
30.0 F

Sandpoint, Sandpoint Airport, ID (KSZT)

Fair
32.0 F

Coeur dAlene Airport - Pappy Boyington Field, ID (KCOE)

Fair
34.0 F

Boundary County Airport, ID (K65S)

Fair
32.0 F